COSMOS 2374 (GLONASS)

Satellite information

Favourite Embed

Satellite Type and Status

PAYLOADIN ORBIT

Key statistics

Satellite COSMOS 2374 (GLONASS) at a glance.

Uptime

9093

Days in orbit

Revolutions

≈ 2.1

Per day

Orbit

MEO

Medium Earth Orbit

Inclination

65.3

Latest

Satellite identification and parameters

Extended collection of information and parameters for COSMOS 2374 (GLONASS).

Object identification

Identified? True

Debris? False

Object name: COSMOS 2374 (GLONASS)

International designator: 2000-063C

Object number (NORAD): 26566

Object ID (CCSDS): 26566

Country: COMMONWEALTH OF INDEPENDENT STATES (CIS)

Current information (Y/N): Y

RCS size: LARGE

Orbital parameters

Period: 675.74 minutes

Inclination: 65.3413 deg

SMA: 25508.203 km

Apoapsis: 19329.11 km

Periapsis: 18931.025 km

RAAN: 323.3564 deg

Eccentricy: 0.00780308

Argument of periapsis: 210.6702 deg

Mean anomaly: 152.063 deg

Mean motion: 2.13099764 rev/day

Mean motion (dot): -0.00000045 rev/day2

B* drag term: 0.0 1/REarth

Two-line elements (TLE)

Creation date: Sept. 4, 2025, 4:29 a.m.

Reference frame: TEME

Reference center: EARTH

Epoch: Sept. 3, 2025, 6:33 a.m. UTC

TLE line 0: 0 COSMOS 2374 (GLONASS)

TLE line 1: 1 26566U 00063C 25246.27315285 -.00000045 00000-0 00000-0 0 9996

TLE line 2: 2 26566 65.3413 323.3564 0078031 210.6702 152.0630 2.13099764193643

Live tracking on map

Real-time ground track for satellite COSMOS 2374 (GLONASS).

In-orbit conjunctions

A list of the most updated potential collisions computed for object COSMOS 2374 (GLONASS).

Target Orbit TCA Probability of collision Miss distance Type
COSMOS 2294 (GLONASS) MEO 2025-02-02 14:49:07 TBA 3137.0 (m) PAYLOAD
COSMOS 2294 (GLONASS) MEO 2025-02-02 03:33:23 TBA 1822.0 (m) PAYLOAD
COSMOS 2294 (GLONASS) MEO 2025-02-01 16:17:38 TBA 2519.0 (m) PAYLOAD
COSMOS 2294 (GLONASS) MEO 2025-02-01 05:01:54 TBA 4348.0 (m) PAYLOAD
COSMOS 2294 (GLONASS) MEO 2025-01-31 17:46:09 TBA 4747.0 (m) PAYLOAD

Associated space launch

GLONASS navigation satellites

COSMOS 2374 (GLONASS) was lifted into orbit during the mission ‘Proton | Uragan 75 to 77’, on board a Proton space rocket.

The launch took place on Oct. 13, 2000, 2:12 p.m. from 81/24 (81P).

For more information about the launch, click the button.

Launch to space Proton | Uragan 75 to 77
Proton | Uragan 75 to 77

Agency: N/A

Status: Launch Successful

Launch date: Oct. 13, 2000, 2:12 p.m. UTC

Rocket: Proton

Launch pad: 81/24 (81P)

Location: Baikonur Cosmodrome, Republic of Kazakhstan

...

Latest news about this satellite

There are no fresh news available about this satellite. Check back as we update our databases every day.


Newsletter sign-up

Weekly statistics, charts and insights to help you stay on top of the space industry.